Location: Mohawk View
(42.7837°N, 73.7885°W)
Time: 17:02:54
(UTC+00:00)

CZ-4C R/B - Pass Details

Date: 17 June 2021
Orbit: 606 x 1396 km, 63.4° (Epoch: 02 August)

Event Time Altitude Azimuth Distance (km) Brightness Sun altitude
Exits shadow 08:19:30 - 193° (SSW) 2,334 4.0 -9.0°
Reaches altitude 10° 08:20:10 10° 191° (S) 2,079 3.8 -8.9°
Maximum altitude 08:24:39 47° 117° (ESE) 971 2.7 -8.3°
Drops below altitude 10° 08:29:58 10° 45° (NE) 2,471 6.4 -7.6°
Sets 08:32:46 0° 40° (NE) 3,544 7.7 -7.2°
